Location: Unspecified
(0.0000°N, 0.0000°E)
Time: 00:15:28
(UTC+00:00)

N. Korean satellite - Pass Details

Date: 22 January 2022
Orbit: 447 x 490 km, 97.3° (Epoch: 27 January)

Event Time Altitude Azimuth Distance (km) Brightness Sun altitude
Rises 04:47:29 0° 12° (NNE) 2,549 10.1 -19.7°
Reaches altitude 10° 04:49:33 10° 12° (NNE) 1,669 9.2 -19.2°
Maximum altitude 04:53:08 85° 100° (E) 492 6.5 -18.4°
Drops below altitude 10° 04:56:43 10° 189° (S) 1,663 9.4 -17.6°
Sets 04:58:47 0° 190° (S) 2,539 10.4 -17.1°
